START_TIME,STEP,MOV.,H8,t_acc.,H43,t_acc.,M25,t_acc.,H9,t_acc.
1979-07-30 00:41:40.570 ,0,0,,0,,0,,0,,0
1979-07-30 00:41:52.570 ,0,0,0.,12.0,0.,12.0,0.,12.0,0.,12.0
1979-07-30 00:42:04.570 ,0,0,0.,12.0,0.,12.0,0.,12.0,0.,12.0
1979-07-30 00:42:16.570 ,0,0,0.,12.0,0.,12.0,0.,12.0,0.,12.0
1979-07-30 00:43:16.570 ,0,0,0.,12.0,0.,12.0,0.,12.0,0.,12.0
1979-07-30 00:43:28.570 ,0,0,0.,12.0,0.,12.0,0.,12.0,0.,12.0
1979-07-30 00:43:40.570 ,0,0,0.,12.0,0.,12.0,0.,12.0,0.,12.0
1979-07-30 00:43:52.570 ,0,0,0.,12.0,0.,12.0,0.,12.0,0.,12.0
1979-07-30 00:44:04.570 ,4,1,0.,12.0,0.,12.0,0.,12.0,0.,12.0
1979-07-30 00:44:16.570 ,4,1,,0,,0,,0,,0
1979-07-30 00:44:28.570 ,0,0,0.,12.0,0.,12.0,0.,12.0,0.,12.0
1979-07-30 00:44:40.570 ,0,0,0.,12.0,0.,12.0,0.,12.0,0.,12.0
1979-07-30 00:44:53.170 ,3,0,,0,,0,,0,,0
1979-07-30 00:45:05.170 ,3,0,0.,12.0,0.,12.0,0.,12.0,0.,12.0
1979-07-30 00:45:16.570 ,3,0,0.,12.0,0.,12.0,0.,12.0,0.,12.0
1979-07-30 00:45:28.570 ,3,0,0.,12.0,0.,12.0,0.,12.0,0.,12.0
1979-07-30 00:45:40.570 ,2,0,0.,12.0,0.,12.0,0.,12.0,0.,12.0
1979-07-30 00:45:52.570 ,2,0,0.,12.0,0.,12.0,0.,12.0,0.,12.0
1979-07-30 00:46:04.570 ,2,0,0.,12.0,0.,12.0,0.,12.0,0.,12.0
1979-07-30 00:46:16.570 ,2,0,0.,12.0,0.,12.0,0.,12.0,0.,12.0
1979-07-30 00:46:28.570 ,1,0,0.,12.0,0.,12.0,0.,12.0,0.,12.0
1979-07-30 00:46:40.570 ,1,0,0.,12.0,0.,12.0,0.,12.0,0.,12.0
1979-07-30 00:46:52.570 ,1,0,0.,12.0,0.,12.0,0.,12.0,0.,12.0
1979-07-30 00:47:04.570 ,1,0,0.,12.0,0.,12.0,0.,12.0,0.,12.0
1979-07-30 00:47:16.570 ,0,0,0.,12.0,0.,12.0,0.,12.0,0.,12.0
1979-07-30 00:47:28.570 ,0,0,0.,12.0,0.,12.0,0.,12.0,0.,12.0
1979-07-30 00:47:40.570 ,0,0,0.,12.0,0.,12.0,0.,12.0,0.,12.0
1979-07-30 00:47:52.570 ,0,0,0.,12.0,0.,12.0,0.,12.0,0.,12.0
1979-07-30 00:48:04.570 ,0,0,0.,12.0,0.,12.0,0.,12.0,0.,12.0
1979-07-30 00:48:16.570 ,0,0,0.,12.0,0.,12.0,0.,12.0,0.,12.0
1979-07-30 00:48:28.570 ,0,0,0.,12.0,0.,12.0,0.,12.0,0.,12.0
1979-07-30 00:48:40.570 ,0,0,0.,12.0,0.,12.0,0.,12.0,0.,12.0
1979-07-30 00:48:52.570 ,1,0,0.,12.0,0.,12.0,0.,12.0,0.,12.0
1979-07-30 00:49:04.570 ,1,0,0.,12.0,0.,12.0,0.,12.0,0.,12.0
1979-07-30 00:49:16.570 ,0,0,0.,12.0,0.,12.0,0.,12.0,0.,12.0
1979-07-30 00:49:28.570 ,0,0,,0,,0,,0,,0
1979-07-30 00:52:33.370 ,0,0,0.,12.0,0.,12.0,0.,12.0,0.,12.0
1979-07-30 00:52:45.370 ,0,0,0.,12.0,0.,12.0,0.,12.0,0.,12.0
1979-07-30 00:52:52.570 ,0,0,,0,,0,,0,,0
1979-07-30 00:53:04.570 ,0,0,0.,12.0,0.,12.0,0.,12.0,0.,12.0
1979-07-30 00:53:16.570 ,0,0,0.,12.0,0.,12.0,0.,12.0,0.,12.0
1979-07-30 00:53:28.570 ,0,0,,0,,0,,0,,0
1979-07-30 00:57:34.570 ,0,0,,0,,0,,0,,0
1979-07-30 00:57:46.570 ,0,0,0.,12.0,0.,12.0,0.,12.0,0.,12.0
1979-07-30 00:57:40.570 ,3,0,0.,12.0,0.,12.0,0.,12.0,0.,12.0
1979-07-30 00:57:52.570 ,3,0,0.,12.0,0.,12.0,0.,12.0,0.,12.0
1979-07-30 00:58:04.570 ,3,0,0.,12.0,0.,12.0,0.,12.0,0.,12.0
1979-07-30 00:58:16.570 ,3,0,0.,12.0,0.,12.0,0.,12.0,0.,12.0
1979-07-30 00:58:28.570 ,2,0,0.,12.0,0.,12.0,0.,12.0,0.,12.0
1979-07-30 00:58:40.570 ,2,0,0.,12.0,0.,12.0,0.,12.0,0.,12.0
1979-07-30 00:58:52.570 ,2,0,0.,12.0,0.,12.0,0.,12.0,0.,12.0
1979-07-30 00:59:04.570 ,2,0,0.,12.0,0.,12.0,0.,12.0,0.,12.0
1979-07-30 00:59:16.570 ,1,0,0.,12.0,0.,12.0,0.,12.0,0.,12.0
1979-07-30 00:59:28.570 ,1,0,0.,12.0,0.,12.0,0.,12.0,0.,12.0
1979-07-30 00:59:40.570 ,1,0,0.,12.0,0.,12.0,0.,12.0,0.,12.0
1979-07-30 00:59:52.570 ,1,0,0.,12.0,0.,12.0,0.,12.0,0.,12.0
1979-07-30 01:00:04.570 ,0,0,0.,12.0,0.,12.0,0.,12.0,0.,12.0
1979-07-30 01:00:16.570 ,0,0,0.,12.0,0.,12.0,0.,12.0,0.,12.0
1979-07-30 01:00:28.570 ,0,0,0.,12.0,0.,12.0,0.,12.0,0.,12.0
1979-07-30 01:00:40.570 ,0,0,0.,12.0,0.,12.0,0.,12.0,0.,12.0
1979-07-30 01:00:52.570 ,0,0,0.,12.0,0.,12.0,0.,12.0,0.,12.0
1979-07-30 01:01:04.570 ,0,0,0.,12.0,0.,12.0,0.,12.0,0.,12.0
1979-07-30 01:01:16.570 ,0,0,0.,12.0,0.,12.0,0.,12.0,0.,12.0
1979-07-30 01:01:28.570 ,0,0,0.,12.0,0.,12.0,0.,12.0,0.,12.0
1979-07-30 01:01:40.570 ,1,0,0.,12.0,0.,12.0,0.,12.0,0.,12.0
1979-07-30 01:01:52.570 ,1,0,0.,12.0,0.,12.0,0.,12.0,0.,12.0
1979-07-30 01:02:04.570 ,1,0,0.,12.0,0.,12.0,0.,12.0,0.,12.0
1979-07-30 01:02:16.570 ,1,0,0.,12.0,0.,12.0,0.,12.0,0.,12.0
1979-07-30 01:02:28.570 ,2,0,0.,12.0,0.,12.0,0.,12.0,0.,12.0
1979-07-30 01:02:40.570 ,2,0,0.,12.0,0.,12.0,0.,12.0,0.,12.0
1979-07-30 01:02:52.570 ,2,0,0.,12.0,0.,12.0,0.,12.0,0.,12.0
1979-07-30 01:03:04.570 ,2,0,0.,12.0,0.,12.0,0.,12.0,0.,12.0
1979-07-30 01:03:16.570 ,3,0,0.,12.0,0.,12.0,0.,12.0,0.,12.0
1979-07-30 01:03:28.570 ,3,0,0.,12.0,0.,12.0,0.,12.0,0.,12.0
1979-07-30 01:03:40.570 ,3,0,0.,12.0,0.,12.0,0.,12.0,0.,12.0
1979-07-30 01:03:52.570 ,3,0,0.,12.0,0.,12.0,0.,12.0,0.,12.0
1979-07-30 01:04:04.570 ,4,0,0.,12.0,0.,12.0,0.,12.0,0.,12.0
1979-07-30 01:04:16.570 ,4,0,0.,12.0,0.,12.0,0.,12.0,0.,12.0
1979-07-30 01:04:28.570 ,4,0,0.,12.0,0.,12.0,0.,12.0,0.,12.0
1979-07-30 01:04:40.570 ,4,0,0.,12.0,0.,12.0,0.,12.0,0.,12.0
1979-07-30 01:04:52.570 ,5,0,0.,12.0,0.,12.0,0.,12.0,0.,12.0
1979-07-30 01:05:04.570 ,5,0,0.,12.0,0.,12.0,0.,12.0,0.,12.0
1979-07-30 01:05:16.570 ,5,0,0.,12.0,0.,12.0,0.,12.0,0.,12.0
1979-07-30 01:05:28.570 ,5,0,0.,12.0,0.,12.0,0.,12.0,0.,12.0
1979-07-30 01:05:40.570 ,6,0,0.,12.0,0.,12.0,0.,12.0,0.,12.0
1979-07-30 01:05:52.570 ,6,0,0.,12.0,0.,12.0,0.,12.0,0.,12.0
1979-07-30 01:06:04.570 ,6,0,0.,12.0,0.,12.0,0.,12.0,0.,12.0
1979-07-30 01:06:16.570 ,6,0,0.,12.0,0.,12.0,0.,12.0,0.,12.0
1979-07-30 01:06:28.570 ,7,0,0.,12.0,0.,12.0,0.,12.0,0.,12.0
1979-07-30 01:06:40.570 ,7,0,0.,12.0,0.,12.0,0.,12.0,0.,12.0
1979-07-30 01:06:52.570 ,7,0,0.,12.0,0.,12.0,0.,12.0,0.,12.0
1979-07-30 01:07:04.570 ,7,0,0.,12.0,0.,12.0,0.,12.0,0.,12.0
1979-07-30 01:07:16.570 ,3,1,0.,12.0,0.,12.0,0.,12.0,0.,12.0
1979-07-30 01:07:28.570 ,3,1,0.,12.0,0.,12.0,0.,12.0,0.,12.0
1979-07-30 01:07:40.570 ,0,1,0.,12.0,0.,12.0,0.,12.0,0.,12.0
1979-07-30 01:07:52.570 ,0,1,0.,12.0,0.,12.0,0.,12.0,0.,12.0
1979-07-30 01:08:04.570 ,4,1,0.,12.0,0.,12.0,0.,12.0,0.,12.0
1979-07-30 01:08:16.570 ,4,1,0.,12.0,0.,12.0,0.,12.0,0.,12.0
1979-07-30 01:08:28.570 ,7,1,0.,12.0,0.,12.0,0.,12.0,0.,12.0
1979-07-30 01:08:40.570 ,7,1,0.,12.0,0.,12.0,0.,12.0,0.,12.0
1979-07-30 01:08:52.570 ,3,1,0.,12.0,0.,12.0,0.,12.0,0.,12.0
1979-07-30 01:09:04.570 ,3,1,0.,12.0,0.,12.0,0.,12.0,0.,12.0
1979-07-30 01:09:16.570 ,0,1,0.,12.0,0.,12.0,0.,12.0,0.,12.0
1979-07-30 01:09:28.570 ,0,1,0.,12.0,0.,12.0,0.,12.0,0.,12.0
1979-07-30 01:09:40.570 ,4,1,0.,12.0,0.,12.0,0.,12.0,0.,12.0
1979-07-30 01:09:52.570 ,4,1,0.,12.0,0.,12.0,0.,12.0,0.,12.0
1979-07-30 01:10:04.570 ,7,1,0.,12.0,0.,12.0,0.,12.0,0.,12.0
1979-07-30 01:10:16.570 ,7,1,0.,12.0,0.,12.0,0.,12.0,0.,12.0
1979-07-30 01:10:28.570 ,3,1,0.,12.0,0.,12.0,0.,12.0,0.,12.0
1979-07-30 01:10:40.570 ,3,1,0.,12.0,0.,12.0,0.,12.0,0.,12.0
1979-07-30 01:10:52.570 ,0,0,0.,12.0,0.,12.0,0.,12.0,0.,12.0
1979-07-30 01:11:04.570 ,0,0,0.,12.0,0.,12.0,0.,12.0,0.,12.0
1979-07-30 01:11:18.970 ,0,0,0.,12.0,0.,12.0,0.,12.0,0.,12.0
1979-07-30 01:11:30.970 ,0,0,0.,12.0,0.,12.0,0.,12.0,0.,12.0
1979-07-30 01:11:40.570 ,7,1,0.,12.0,0.,12.0,0.,12.0,0.,12.0
1979-07-30 01:11:52.570 ,7,1,0.,12.0,0.,12.0,0.,12.0,0.,12.0
1979-07-30 01:12:04.570 ,3,1,,0,,0,,0,,0
1979-07-30 01:12:16.570 ,3,1,0.,12.0,0.,12.0,0.,12.0,0.,12.0
1979-07-30 01:12:28.570 ,0,1,0.,12.0,0.,12.0,0.,12.0,0.,12.0
1979-07-30 01:12:40.570 ,0,1,0.,12.0,0.,12.0,0.,12.0,0.,12.0
1979-07-30 01:12:52.570 ,4,1,0.,12.0,0.,12.0,0.,12.0,0.,12.0
1979-07-30 01:13:04.570 ,4,1,0.,12.0,0.,12.0,0.,12.0,0.,12.0
1979-07-30 01:13:16.570 ,7,1,0.,12.0,0.,12.0,0.,12.0,0.,12.0
1979-07-30 01:13:28.570 ,7,1,0.,12.0,0.,12.0,0.,12.0,0.,12.0
1979-07-30 01:13:40.570 ,3,1,0.,12.0,0.,12.0,0.,12.0,0.,12.0
1979-07-30 01:13:52.570 ,3,1,0.,12.0,0.,12.0,0.,12.0,0.,12.0
1979-07-30 01:14:04.570 ,0,1,0.,12.0,0.,12.0,0.,12.0,0.,12.0
1979-07-30 01:14:16.570 ,0,1,0.,12.0,0.,12.0,0.,12.0,0.,12.0
1979-07-30 01:14:28.570 ,4,1,0.,12.0,0.,12.0,0.,12.0,0.,12.0
1979-07-30 01:14:40.570 ,4,1,0.,12.0,0.,12.0,0.,12.0,0.,12.0
1979-07-30 01:14:52.570 ,7,1,0.,12.0,0.,12.0,0.,12.0,0.,12.0
1979-07-30 01:15:04.570 ,7,1,0.,12.0,0.,12.0,0.,12.0,0.,12.0
1979-07-30 01:15:16.570 ,3,1,0.,12.0,0.,12.0,0.,12.0,0.,12.0
1979-07-30 01:15:28.570 ,3,1,0.,12.0,0.,12.0,0.,12.0,0.,12.0
1979-07-30 01:15:40.570 ,0,1,0.,12.0,0.,12.0,0.,12.0,0.,12.0
1979-07-30 01:15:52.570 ,0,1,0.,12.0,0.,12.0,0.,12.0,0.,12.0
1979-07-30 01:16:04.570 ,4,1,0.,12.0,0.,12.0,0.,12.0,0.,12.0
1979-07-30 01:16:16.570 ,4,1,0.,12.0,0.,12.0,0.,12.0,0.,12.0
1979-07-30 01:16:28.570 ,7,1,0.,12.0,0.,12.0,0.,12.0,0.,12.0
1979-07-30 01:16:40.570 ,7,1,0.,12.0,0.,12.0,0.,12.0,0.,12.0
1979-07-30 01:16:52.570 ,3,1,0.,12.0,0.,12.0,0.,12.0,0.,12.0
1979-07-30 01:17:04.570 ,3,1,0.,12.0,0.,12.0,0.,12.0,0.,12.0
1979-07-30 01:17:16.570 ,0,1,0.,12.0,0.,12.0,0.,12.0,0.,12.0
1979-07-30 01:17:28.570 ,0,1,0.,12.0,0.,12.0,0.,12.0,0.,12.0
1979-07-30 01:17:40.570 ,0,0,0.,12.0,0.,12.0,0.,12.0,0.,12.0
1979-07-30 01:17:52.570 ,0,0,0.,12.0,0.,12.0,0.,12.0,0.,12.0
1979-07-30 01:18:04.570 ,0,0,0.,12.0,0.,12.0,0.,12.0,0.,12.0
1979-07-30 01:18:16.570 ,0,0,0.,12.0,0.,12.0,0.,12.0,0.,12.0
1979-07-30 01:18:28.570 ,5,0,0.,12.0,0.,12.0,0.,12.0,0.,12.0
1979-07-30 01:18:40.570 ,5,0,0.,12.0,0.,12.0,0.,12.0,0.,12.0
1979-07-30 01:18:52.570 ,5,0,0.,12.0,0.,12.0,0.,12.0,0.,12.0
1979-07-30 01:19:04.570 ,5,0,0.,12.0,0.,12.0,0.,12.0,0.,12.0
1979-07-30 01:19:16.570 ,4,0,0.,12.0,0.,12.0,0.,12.0,0.,12.0
1979-07-30 01:19:28.570 ,4,0,0.,12.0,0.,12.0,0.,12.0,0.,12.0
1979-07-30 01:19:40.570 ,4,0,0.,12.0,0.,12.0,0.,12.0,0.,12.0
1979-07-30 01:19:52.570 ,4,0,0.,12.0,0.,12.0,0.,12.0,0.,12.0
1979-07-30 01:20:04.570 ,3,0,0.,12.0,0.,12.0,0.,12.0,0.,12.0
1979-07-30 01:20:16.570 ,3,0,0.,12.0,0.,12.0,0.,12.0,0.,12.0
1979-07-30 01:20:28.570 ,3,0,0.,12.0,0.,12.0,0.,12.0,0.,12.0
1979-07-30 01:20:40.570 ,3,0,0.,12.0,0.,12.0,0.,12.0,0.,12.0
1979-07-30 01:20:52.570 ,2,0,0.,12.0,0.,12.0,0.,12.0,0.,12.0
1979-07-30 01:21:04.570 ,2,0,0.,12.0,0.,12.0,0.,12.0,0.,12.0
1979-07-30 01:21:16.570 ,2,0,0.,12.0,0.,12.0,0.,12.0,0.,12.0
1979-07-30 01:21:28.570 ,2,0,0.,12.0,0.,12.0,0.,12.0,0.,12.0
1979-07-30 01:21:40.570 ,1,0,0.,12.0,0.,12.0,0.,12.0,0.,12.0
1979-07-30 01:21:52.570 ,1,0,0.,12.0,0.,12.0,0.,12.0,0.,12.0
1979-07-30 01:22:04.570 ,1,0,0.,12.0,0.,12.0,0.,12.0,0.,12.0
1979-07-30 01:22:16.570 ,1,0,0.,12.0,0.,12.0,0.,12.0,0.,12.0
1979-07-30 01:22:28.570 ,0,0,0.,12.0,0.,12.0,0.,12.0,0.,12.0
1979-07-30 01:22:40.570 ,0,0,0.,12.0,0.,12.0,0.,12.0,0.,12.0
1979-07-30 01:22:52.570 ,0,0,0.,12.0,0.,12.0,0.,12.0,0.,12.0
1979-07-30 01:23:04.570 ,0,0,0.,12.0,0.,12.0,0.,12.0,0.,12.0
1979-07-30 01:23:16.570 ,0,0,0.,12.0,0.,12.0,0.,12.0,0.,12.0
1979-07-30 01:23:28.570 ,0,0,0.,12.0,0.,12.0,0.,12.0,0.,12.0
1979-07-30 01:23:40.570 ,0,0,0.,12.0,0.,12.0,0.,12.0,0.,12.0
1979-07-30 01:23:52.570 ,0,0,0.,12.0,0.,12.0,0.,12.0,0.,12.0
1979-07-30 01:24:04.570 ,1,0,0.,12.0,0.,12.0,0.,12.0,0.,12.0
1979-07-30 01:24:16.570 ,1,0,0.,12.0,0.,12.0,0.,12.0,0.,12.0
1979-07-30 01:24:28.570 ,1,0,0.,12.0,0.,12.0,0.,12.0,0.,12.0
1979-07-30 01:24:40.570 ,1,0,0.,12.0,0.,12.0,0.,12.0,0.,12.0
1979-07-30 01:24:52.570 ,2,0,,0,,0,,0,,0
1979-07-30 01:25:04.570 ,2,0,0.,12.0,0.,12.0,0.,12.0,0.,12.0
1979-07-30 01:25:16.570 ,2,0,0.,12.0,0.,12.0,0.,12.0,0.,12.0
1979-07-30 01:25:28.570 ,2,0,0.,12.0,0.,12.0,0.,12.0,0.,12.0
1979-07-30 01:25:40.570 ,3,0,0.,12.0,0.,12.0,0.,12.0,0.,12.0
1979-07-30 01:25:52.570 ,3,0,0.,12.0,0.,12.0,0.,12.0,0.,12.0
1979-07-30 01:26:04.570 ,3,0,0.,12.0,0.,12.0,0.,12.0,0.,12.0
1979-07-30 01:26:16.570 ,3,0,0.,12.0,0.,12.0,0.,12.0,0.,12.0
1979-07-30 01:26:28.570 ,4,0,0.,12.0,0.,12.0,0.,12.0,0.,12.0
1979-07-30 01:26:40.570 ,4,0,0.,12.0,0.,12.0,0.,12.0,0.,12.0
1979-07-30 01:26:52.570 ,4,0,0.,12.0,0.,12.0,0.,12.0,0.,12.0
1979-07-30 01:27:04.570 ,4,0,0.,12.0,0.,12.0,0.,12.0,0.,12.0
1979-07-30 01:27:16.570 ,5,0,0.,12.0,0.,12.0,0.,12.0,0.,12.0
1979-07-30 01:27:28.570 ,5,0,0.,12.0,0.,12.0,0.,12.0,0.,12.0
1979-07-30 01:27:40.570 ,5,0,0.,12.0,0.,12.0,0.,12.0,0.,12.0
1979-07-30 01:27:52.570 ,5,0,0.,12.0,0.,12.0,0.,12.0,0.,12.0
1979-07-30 01:28:04.570 ,6,0,0.,12.0,0.,12.0,0.,12.0,0.,12.0
1979-07-30 01:28:16.570 ,6,0,0.,12.0,0.,12.0,0.,12.0,0.,12.0
1979-07-30 01:28:28.570 ,6,0,0.,12.0,0.,12.0,0.,12.0,0.,12.0
1979-07-30 01:28:40.570 ,6,0,0.,12.0,0.,12.0,0.,12.0,0.,12.0
1979-07-30 01:28:52.570 ,7,0,0.,12.0,0.,12.0,0.,12.0,0.,12.0
1979-07-30 01:29:04.570 ,7,0,0.,12.0,0.,12.0,0.,12.0,0.,12.0
1979-07-30 01:29:16.570 ,7,0,0.,12.0,0.,12.0,0.,12.0,0.,12.0
1979-07-30 01:29:28.570 ,7,0,0.,12.0,0.,12.0,0.,12.0,0.,12.0
1979-07-30 01:29:40.570 ,7,0,0.,12.0,0.,12.0,0.,12.0,0.,12.0
1979-07-30 01:29:52.570 ,7,0,0.,12.0,0.,12.0,0.,12.0,0.,12.0
1979-07-30 01:30:04.570 ,7,0,0.,12.0,0.,12.0,0.,12.0,0.,12.0
1979-07-30 01:30:16.570 ,7,0,0.,12.0,0.,12.0,0.,12.0,0.,12.0
1979-07-30 01:30:28.570 ,6,0,0.,12.0,0.,12.0,0.,12.0,0.,12.0
1979-07-30 01:30:40.570 ,6,0,0.,12.0,0.,12.0,0.,12.0,0.,12.0
1979-07-30 01:30:52.570 ,6,0,0.,12.0,0.,12.0,0.,12.0,0.,12.0
1979-07-30 01:31:04.570 ,6,0,0.,12.0,0.,12.0,0.,12.0,0.,12.0
1979-07-30 01:31:16.570 ,5,0,0.,12.0,0.,12.0,0.,12.0,0.,12.0
1979-07-30 01:31:28.570 ,5,0,0.,12.0,0.,12.0,0.,12.0,0.,12.0
1979-07-30 01:31:40.570 ,5,0,0.,12.0,0.,12.0,0.,12.0,0.,12.0
1979-07-30 01:31:52.570 ,5,0,0.,12.0,0.,12.0,0.,12.0,0.,12.0
1979-07-30 01:32:04.570 ,4,0,0.,12.0,0.,12.0,0.,12.0,0.,12.0
1979-07-30 01:32:16.570 ,4,0,0.,12.0,0.,12.0,0.,12.0,0.,12.0
1979-07-30 01:32:28.570 ,4,0,0.,12.0,0.,12.0,0.,12.0,0.,12.0
1979-07-30 01:32:40.570 ,4,0,0.,12.0,0.,12.0,0.,12.0,0.,12.0
1979-07-30 01:32:52.570 ,3,0,0.,12.0,0.,12.0,0.,12.0,0.,12.0
1979-07-30 01:33:04.570 ,3,0,0.,12.0,0.,12.0,0.,12.0,0.,12.0
1979-07-30 01:33:16.570 ,3,0,0.,12.0,0.,12.0,0.,12.0,0.,12.0
1979-07-30 01:33:28.570 ,3,0,0.,12.0,0.,12.0,0.,12.0,0.,12.0
1979-07-30 01:33:40.570 ,2,0,0.,12.0,0.,12.0,0.,12.0,1.,12.0
1979-07-30 01:33:52.570 ,2,0,0.,12.0,0.,12.0,0.,12.0,0.,12.0
1979-07-30 01:34:04.570 ,2,0,0.,12.0,0.,12.0,0.,12.0,0.,12.0
1979-07-30 01:34:16.570 ,2,0,0.,12.0,0.,12.0,0.,12.0,0.,12.0
1979-07-30 01:34:28.570 ,1,0,0.,12.0,0.,12.0,0.,12.0,0.,12.0
1979-07-30 01:34:40.570 ,1,0,0.,12.0,0.,12.0,0.,12.0,0.,12.0
1979-07-30 01:34:52.570 ,1,0,0.,12.0,0.,12.0,0.,12.0,0.,12.0
1979-07-30 01:35:04.570 ,1,0,0.,12.0,0.,12.0,0.,12.0,0.,12.0
1979-07-30 01:35:16.570 ,0,0,0.,12.0,0.,12.0,0.,12.0,0.,12.0
1979-07-30 01:35:28.570 ,0,0,0.,12.0,0.,12.0,0.,12.0,0.,12.0
1979-07-30 01:35:40.570 ,0,0,0.,12.0,0.,12.0,0.,12.0,0.,12.0
1979-07-30 01:35:52.570 ,0,0,0.,12.0,0.,12.0,0.,12.0,0.,12.0
1979-07-30 01:36:04.570 ,0,0,0.,12.0,0.,12.0,0.,12.0,0.,12.0
1979-07-30 01:36:16.570 ,0,0,0.,12.0,0.,12.0,0.,12.0,0.,12.0
1979-07-30 01:36:28.570 ,0,0,0.,12.0,0.,12.0,0.,12.0,0.,12.0
1979-07-30 01:36:40.570 ,0,0,0.,12.0,0.,12.0,0.,12.0,0.,12.0
1979-07-30 01:36:52.570 ,1,0,0.,12.0,0.,12.0,0.,12.0,0.,12.0
1979-07-30 01:37:04.570 ,1,0,0.,12.0,0.,12.0,0.,12.0,0.,12.0
1979-07-30 01:37:16.570 ,1,0,0.,12.0,0.,12.0,0.,12.0,0.,12.0
1979-07-30 01:37:28.570 ,1,0,0.,12.0,0.,12.0,0.,12.0,0.,12.0
1979-07-30 01:37:40.570 ,2,0,0.,12.0,0.,12.0,0.,12.0,0.,12.0
1979-07-30 01:37:52.570 ,2,0,0.,12.0,0.,12.0,0.,12.0,0.,12.0
1979-07-30 01:38:04.570 ,2,0,0.,12.0,0.,12.0,0.,12.0,0.,12.0
1979-07-30 01:38:16.570 ,2,0,0.,12.0,0.,12.0,0.,12.0,0.,12.0
1979-07-30 01:38:28.570 ,3,0,0.,12.0,0.,12.0,0.,12.0,0.,12.0
1979-07-30 01:38:40.570 ,3,0,0.,12.0,0.,12.0,0.,12.0,0.,12.0
1979-07-30 01:38:52.570 ,3,0,0.,12.0,0.,12.0,0.,12.0,0.,12.0
1979-07-30 01:39:04.570 ,3,0,0.,12.0,0.,12.0,0.,12.0,0.,12.0
1979-07-30 01:39:16.570 ,4,0,0.,12.0,0.,12.0,0.,12.0,0.,12.0
1979-07-30 01:39:28.570 ,4,0,0.,12.0,0.,12.0,0.,12.0,0.,12.0
1979-07-30 01:39:40.570 ,4,0,0.,12.0,0.,12.0,0.,12.0,0.,12.0
1979-07-30 01:39:52.570 ,4,0,0.,12.0,0.,12.0,0.,12.0,0.,12.0
1979-07-30 01:40:04.570 ,5,0,0.,12.0,0.,12.0,0.,12.0,0.,12.0
1979-07-30 01:40:16.570 ,5,0,0.,12.0,0.,12.0,0.,12.0,0.,12.0
1979-07-30 01:40:28.570 ,5,0,0.,12.0,0.,12.0,0.,12.0,0.,12.0
1979-07-30 01:40:40.570 ,5,0,0.,12.0,0.,12.0,0.,12.0,0.,12.0
1979-07-30 01:40:52.570 ,6,0,0.,12.0,0.,12.0,0.,12.0,0.,12.0
1979-07-30 01:41:04.570 ,6,0,0.,12.0,0.,12.0,0.,12.0,0.,12.0
1979-07-30 01:41:16.570 ,6,0,0.,12.0,0.,12.0,0.,12.0,0.,12.0
1979-07-30 01:41:28.570 ,6,0,0.,12.0,0.,12.0,0.,12.0,0.,12.0
1979-07-30 01:41:40.570 ,7,0,0.,12.0,0.,12.0,0.,12.0,0.,12.0
1979-07-30 01:41:52.570 ,7,0,0.,12.0,0.,12.0,0.,12.0,0.,12.0
1979-07-30 01:42:04.570 ,7,0,0.,12.0,0.,12.0,0.,12.0,0.,12.0
1979-07-30 01:42:16.570 ,7,0,0.,12.0,0.,12.0,0.,12.0,0.,12.0
1979-07-30 01:42:28.570 ,7,0,0.,12.0,0.,12.0,0.,12.0,0.,12.0
1979-07-30 01:42:40.570 ,7,0,0.,12.0,0.,12.0,0.,12.0,0.,12.0
1979-07-30 01:42:52.570 ,7,0,0.,12.0,0.,12.0,0.,12.0,0.,12.0
1979-07-30 01:43:04.570 ,7,0,0.,12.0,0.,12.0,0.,12.0,0.,12.0
1979-07-30 01:43:16.570 ,6,0,0.,12.0,0.,12.0,0.,12.0,0.,12.0
1979-07-30 01:43:28.570 ,6,0,0.,12.0,0.,12.0,0.,12.0,0.,12.0
1979-07-30 01:43:40.570 ,6,0,0.,12.0,0.,12.0,0.,12.0,0.,12.0
1979-07-30 01:43:52.570 ,6,0,0.,12.0,0.,12.0,0.,12.0,0.,12.0
1979-07-30 01:44:04.570 ,5,0,0.,12.0,0.,12.0,0.,12.0,0.,12.0
1979-07-30 01:44:16.570 ,5,0,0.,12.0,0.,12.0,0.,12.0,0.,12.0
1979-07-30 01:44:28.570 ,5,0,0.,12.0,0.,12.0,0.,12.0,0.,12.0
1979-07-30 01:44:40.570 ,5,0,0.,12.0,0.,12.0,0.,12.0,0.,12.0
1979-07-30 01:44:52.570 ,4,0,0.,12.0,0.,12.0,0.,12.0,0.,12.0
1979-07-30 01:45:04.570 ,4,0,0.,12.0,0.,12.0,0.,12.0,0.,12.0
1979-07-30 01:45:16.570 ,0,0,,0,,0,,0,,0
1979-07-30 01:45:28.570 ,0,0,,0,,0,,0,,0
1979-07-30 01:45:16.570 ,0,0,0.,12.0,0.,12.0,0.,12.0,0.,12.0
1979-07-30 01:45:28.570 ,0,0,0.,12.0,0.,12.0,0.,12.0,0.,12.0
1979-07-30 01:45:40.570 ,3,0,0.,12.0,0.,12.0,0.,12.0,0.,12.0
1979-07-30 01:45:52.570 ,3,0,0.,12.0,0.,12.0,0.,12.0,0.,12.0
1979-07-30 01:46:04.570 ,3,0,0.,12.0,0.,12.0,0.,12.0,0.,12.0
1979-07-30 01:46:16.570 ,3,0,0.,12.0,0.,12.0,0.,12.0,0.,12.0
1979-07-30 01:46:28.570 ,2,0,0.,12.0,0.,12.0,0.,12.0,0.,12.0
1979-07-30 01:46:40.570 ,2,0,0.,12.0,0.,12.0,0.,12.0,0.,12.0
1979-07-30 01:46:52.570 ,2,0,0.,12.0,0.,12.0,0.,12.0,0.,12.0
1979-07-30 01:47:04.570 ,2,0,0.,12.0,0.,12.0,0.,12.0,0.,12.0
1979-07-30 01:47:16.570 ,1,0,0.,12.0,0.,12.0,0.,12.0,0.,12.0
1979-07-30 01:47:28.570 ,1,0,0.,12.0,0.,12.0,0.,12.0,0.,12.0
1979-07-30 01:47:40.570 ,1,0,0.,12.0,0.,12.0,0.,12.0,0.,12.0
1979-07-30 01:47:52.570 ,1,0,0.,12.0,0.,12.0,0.,12.0,0.,12.0
1979-07-30 01:48:04.570 ,0,0,0.,12.0,0.,12.0,0.,12.0,0.,12.0
1979-07-30 01:48:16.570 ,0,0,0.,12.0,0.,12.0,0.,12.0,0.,12.0
1979-07-30 01:48:28.570 ,0,0,0.,12.0,0.,12.0,0.,12.0,0.,12.0
1979-07-30 01:48:40.570 ,0,0,0.,12.0,0.,12.0,0.,12.0,0.,12.0
1979-07-30 01:48:52.570 ,0,0,0.,12.0,0.,12.0,0.,12.0,0.,12.0
1979-07-30 01:49:04.570 ,0,0,0.,12.0,0.,12.0,0.,12.0,0.,12.0
1979-07-30 01:49:16.570 ,0,0,0.,12.0,0.,12.0,0.,12.0,0.,12.0
1979-07-30 01:49:28.570 ,0,0,0.,12.0,0.,12.0,0.,12.0,0.,12.0
1979-07-30 01:49:40.570 ,1,0,0.,12.0,0.,12.0,0.,12.0,0.,12.0
1979-07-30 01:49:52.570 ,1,0,0.,12.0,0.,12.0,0.,12.0,0.,12.0
1979-07-30 01:50:04.570 ,1,0,0.,12.0,0.,12.0,0.,12.0,0.,12.0
1979-07-30 01:50:16.570 ,1,0,0.,12.0,0.,12.0,0.,12.0,0.,12.0
1979-07-30 01:50:28.570 ,2,0,0.,12.0,0.,12.0,0.,12.0,0.,12.0
1979-07-30 01:50:40.570 ,2,0,0.,12.0,0.,12.0,0.,12.0,0.,12.0
1979-07-30 01:50:52.570 ,2,0,0.,12.0,0.,12.0,0.,12.0,0.,12.0
1979-07-30 01:51:04.570 ,2,0,0.,12.0,0.,12.0,0.,12.0,0.,12.0
1979-07-30 01:51:16.570 ,3,0,0.,12.0,0.,12.0,0.,12.0,0.,12.0
1979-07-30 01:51:28.570 ,3,0,0.,12.0,0.,12.0,0.,12.0,0.,12.0
1979-07-30 01:51:40.570 ,3,0,0.,12.0,0.,12.0,0.,12.0,0.,12.0
1979-07-30 01:51:52.570 ,3,0,0.,12.0,0.,12.0,0.,12.0,0.,12.0
1979-07-30 01:52:04.570 ,4,0,,0,,0,,0,,0
1979-07-30 01:52:16.570 ,4,0,0.,12.0,0.,12.0,0.,12.0,0.,12.0
1979-07-30 01:52:28.570 ,4,0,0.,12.0,0.,12.0,0.,12.0,0.,12.0
1979-07-30 01:52:40.570 ,4,0,0.,12.0,0.,12.0,0.,12.0,0.,12.0
1979-07-30 01:52:52.570 ,5,0,0.,12.0,0.,12.0,0.,12.0,0.,12.0
1979-07-30 01:53:04.570 ,5,0,0.,12.0,0.,12.0,0.,12.0,0.,12.0
1979-07-30 01:53:16.570 ,5,0,0.,12.0,0.,12.0,0.,12.0,0.,12.0
1979-07-30 01:53:28.570 ,5,0,0.,12.0,0.,12.0,0.,12.0,0.,12.0
1979-07-30 01:53:40.570 ,6,0,0.,12.0,0.,12.0,0.,12.0,0.,12.0
1979-07-30 01:53:52.570 ,6,0,0.,12.0,0.,12.0,0.,12.0,0.,12.0
1979-07-30 01:54:04.570 ,6,0,0.,12.0,0.,12.0,0.,12.0,0.,12.0
1979-07-30 01:54:16.570 ,6,0,0.,12.0,0.,12.0,0.,12.0,0.,12.0
1979-07-30 01:54:28.570 ,7,0,0.,12.0,0.,12.0,0.,12.0,0.,12.0
1979-07-30 01:54:40.570 ,7,0,0.,12.0,0.,12.0,0.,12.0,0.,12.0
1979-07-30 01:54:52.570 ,7,0,0.,12.0,0.,12.0,0.,12.0,0.,12.0
1979-07-30 01:55:04.570 ,7,0,0.,12.0,0.,12.0,0.,12.0,0.,12.0
1979-07-30 01:55:16.570 ,3,1,0.,12.0,0.,12.0,0.,12.0,0.,12.0
1979-07-30 01:55:28.570 ,3,1,0.,12.0,0.,12.0,0.,12.0,0.,12.0
1979-07-30 01:55:40.570 ,0,1,0.,12.0,0.,12.0,0.,12.0,0.,12.0
1979-07-30 01:55:52.570 ,0,1,0.,12.0,0.,12.0,0.,12.0,0.,12.0
1979-07-30 01:56:04.570 ,4,1,0.,12.0,0.,12.0,0.,12.0,0.,12.0
1979-07-30 01:56:16.570 ,4,1,0.,12.0,0.,12.0,0.,12.0,0.,12.0
1979-07-30 01:56:28.570 ,7,1,0.,12.0,0.,12.0,0.,12.0,0.,12.0
1979-07-30 01:56:40.570 ,7,1,0.,12.0,0.,12.0,0.,12.0,0.,12.0
1979-07-30 01:56:52.570 ,3,1,0.,12.0,0.,12.0,0.,12.0,0.,12.0
1979-07-30 01:57:04.570 ,3,1,0.,12.0,0.,12.0,0.,12.0,0.,12.0
1979-07-30 01:57:16.570 ,0,1,0.,12.0,0.,12.0,0.,12.0,0.,12.0
1979-07-30 01:57:28.570 ,0,1,0.,12.0,0.,12.0,0.,12.0,0.,12.0
1979-07-30 01:57:40.570 ,4,1,0.,12.0,0.,12.0,0.,12.0,0.,12.0
1979-07-30 01:57:52.570 ,4,1,0.,12.0,0.,12.0,0.,12.0,0.,12.0
1979-07-30 01:58:04.570 ,7,1,0.,12.0,0.,12.0,0.,12.0,0.,12.0
1979-07-30 01:58:16.570 ,7,1,0.,12.0,0.,12.0,0.,12.0,0.,12.0
1979-07-30 01:58:28.570 ,3,1,0.,12.0,0.,12.0,0.,12.0,0.,12.0
1979-07-30 01:58:40.570 ,3,1,0.,12.0,0.,12.0,0.,12.0,0.,12.0
1979-07-30 01:58:52.570 ,0,1,0.,12.0,0.,12.0,0.,12.0,0.,12.0
1979-07-30 01:59:04.570 ,0,1,0.,12.0,0.,12.0,0.,12.0,0.,12.0
1979-07-30 01:59:16.570 ,4,1,0.,12.0,0.,12.0,0.,12.0,0.,12.0
1979-07-30 01:59:28.570 ,4,1,0.,12.0,0.,12.0,0.,12.0,0.,12.0
1979-07-30 01:59:40.570 ,7,1,0.,12.0,0.,12.0,0.,12.0,0.,12.0
1979-07-30 01:59:52.570 ,7,1,0.,12.0,0.,12.0,0.,12.0,0.,12.0
1979-07-30 02:00:04.570 ,3,1,0.,12.0,0.,12.0,0.,12.0,0.,12.0
1979-07-30 02:00:16.570 ,3,1,0.,12.0,0.,12.0,0.,12.0,0.,12.0
1979-07-30 02:00:28.570 ,0,1,0.,12.0,0.,12.0,0.,12.0,0.,12.0
1979-07-30 02:00:40.570 ,0,1,0.,12.0,0.,12.0,0.,12.0,0.,12.0
1979-07-30 02:00:52.570 ,4,1,0.,12.0,0.,12.0,0.,12.0,0.,12.0
1979-07-30 02:01:04.570 ,4,1,0.,12.0,0.,12.0,0.,12.0,0.,12.0
1979-07-30 02:01:16.570 ,7,1,0.,12.0,0.,12.0,0.,12.0,0.,12.0
1979-07-30 02:01:28.570 ,7,1,0.,12.0,0.,12.0,0.,12.0,0.,12.0
1979-07-30 02:01:40.570 ,3,1,0.,12.0,0.,12.0,0.,12.0,0.,12.0
1979-07-30 02:01:52.570 ,3,1,0.,12.0,0.,12.0,0.,12.0,0.,12.0
1979-07-30 02:02:04.570 ,0,1,0.,12.0,0.,12.0,0.,12.0,0.,12.0
1979-07-30 02:02:16.570 ,0,1,0.,12.0,0.,12.0,0.,12.0,0.,12.0
1979-07-30 02:02:28.570 ,4,1,0.,12.0,0.,12.0,0.,12.0,0.,12.0
1979-07-30 02:02:40.570 ,4,1,0.,12.0,0.,12.0,0.,12.0,0.,12.0
1979-07-30 02:02:52.570 ,7,1,0.,12.0,0.,12.0,0.,12.0,0.,12.0
1979-07-30 02:03:04.570 ,7,1,0.,12.0,0.,12.0,0.,12.0,0.,12.0
1979-07-30 02:03:16.570 ,3,1,0.,12.0,0.,12.0,0.,12.0,0.,12.0
1979-07-30 02:03:28.570 ,3,1,0.,12.0,0.,12.0,0.,12.0,0.,12.0
1979-07-30 02:03:40.570 ,0,1,0.,12.0,0.,12.0,0.,12.0,0.,12.0
1979-07-30 02:03:52.570 ,0,1,0.,12.0,0.,12.0,0.,12.0,0.,12.0
1979-07-30 02:04:04.570 ,4,1,0.,12.0,0.,12.0,0.,12.0,0.,12.0
1979-07-30 02:04:16.570 ,4,1,0.,12.0,0.,12.0,0.,12.0,0.,12.0
1979-07-30 02:04:28.570 ,7,1,0.,12.0,0.,12.0,0.,12.0,0.,12.0
1979-07-30 02:04:40.570 ,7,1,0.,12.0,0.,12.0,0.,12.0,0.,12.0
1979-07-30 02:04:52.570 ,3,1,0.,12.0,0.,12.0,0.,12.0,0.,12.0
1979-07-30 02:05:04.570 ,3,1,0.,12.0,0.,12.0,0.,12.0,0.,12.0
1979-07-30 02:05:16.570 ,0,1,0.,12.0,0.,12.0,0.,12.0,0.,12.0
1979-07-30 02:05:28.570 ,0,1,0.,12.0,0.,12.0,0.,12.0,0.,12.0
1979-07-30 02:05:40.570 ,0,0,0.,12.0,0.,12.0,0.,12.0,0.,12.0
1979-07-30 02:05:52.570 ,0,0,0.,12.0,0.,12.0,0.,12.0,0.,12.0
1979-07-30 02:06:04.570 ,0,0,0.,12.0,0.,12.0,0.,12.0,0.,12.0